SCP
0 0 0 0 0 0 0 0 0 0 0 0 0 0 0 0 0 0 0 0 0 0 0 0 0 0 0 0 0 0 0 0 0 0 0 0 0 0 0 0 -0 -0 0 0 0 0 0 0 0
0 0 0 0 0 0 0 0 0 0 0 0 0 0 0 0 0 0 0 0 0 0 0 0 0 0 0 0 0 0 0 0 0 0 0 0 0 0 0 0 0 0 0 0 0 0 0 0 0
0 0 0 0 0 0 0 0 0 0 0 -0 0 0 0 0 0 0 0 0 0 0 0 0 0 0 0 0 0 0 0 0 0 0 0 0 0 0 0 0 0 0 0 0 0 0 0 0 0
0 0 0 0 0 0 0 0 0 0 0 -0 0 0 0 0 0 0 0 0 0 0 0 0 0 0 0 0 0 0 0 0 0 0 0 0 0 0 0 0 0 0 0 0 0 0 0 0 0
0 0 0 0 0 0 0 0 0 0 0 -0 0 0 0 0 0 0 0 0 0 0 0 0 0 0 0 0 0 0 0 0 0 0 0 0 0 0 0 0 0 0 0 0 0 0 0 0 0
0 0 -0 0 0 0 0 0 0 0 0 0 0 0 0 0 0 0 0 0 0 0 0 0 0 0 0 0 0 0 0 0 0 0 0 0 0 0 0 0 0 0 0 0 0 0 0 0 0
0 0 -0 0 0 0 0 0 0 0 0 0 0 0 0 0 0 0 0 0 0 0 0 0 0 0 0 0 0 0 0 0 0 0 0 0 0 0 0 0 0 0 0 0 0 0 0 0 0
0 0 0 0 0 0 0 0 0 0 0 0 0 0 0 0 0 0 0 0 0 1 1 0 0 0 0 0 0 0 0 0 0 0 0 0 0 0 0 0 0 0 0 0 0 0 0 0 0
0 0 0 0 0 0 0 0 0 0 0 0 0 0 0 0 0 0 0 0 1 1 1 1 0 0 0 0 0 0 0 0 0 0 0 0 0 0 0 1 1 1 1 1 1 1 0 0 0
0 0 0 0 0 0 0 0 0 0 0 0 0 0 0 0 0 0 0 0 1 1 1 1 1 1 0 0 0 0 0 0 0 0 0 1 0 0 0 1 1 1 1 1 1 1 1 1 0
0 0 0 0 0 0 0 0 0 0 0 0 0 0 0 0 0 0 0 1 1 1 1 1 1 1 1 0 1 0 0 0 1 0 1 1 1 0 1 1 1 1 1 1 1 1 1 1 1
0 0 0 0 0 0 0 0 0 0 0 0 0 0 0 1 1 1 1 1 1 2 2 2 2 2 1 1 1 1 1 1 1 1 1 1 1 1 1 1 2 2 2 1 1 1 1 1 1
0 0 0 0 0 0 0 0 0 0 0 0 0 0 0 1 1 1 1 1 2 2 2 3 3 3 3 2 2 2 1 1 1 2 2 2 2 1 2 2 2 2 2 2 2 2 1 1 1
0 0 0 0 0 0 0 0 0 0 0 0 0 0 0 1 1 1 2 2 2 2 3 3 4 4 4 3 3 2 2 2 2 3 3 3 3 3 3 3 3 3 2 2 2 2 2 1 1
0 0 0 0 0 0 0 0 0 0 0 0 0 0 0 1 1 1 2 3 2 3 3 4 4 5 5 4 3 3 2 2 2 3 4 4 4 4 4 4 4 3 3 3 3 2 2 2 2
0 0 0 0 0 0 0 0 0 0 0 0 0 0 1 1 2 2 2 3 3 3 4 5 5 5 5 5 4 3 2 2 3 3 4 5 5 5 5 5 4 4 4 4 3 3 3 2 2
0 0 0 0 0 0 0 0 0 0 0 0 0 0 1 2 2 2 3 3 3 4 5 6 5 5 6 5 4 3 3 3 3 4 5 6 6 6 6 6 5 5 5 4 4 4 4 3 3
0 0 0 0 0 0 0 0 0 0 0 0 0 1 1 2 3 3 3 3 4 5 6 7 7 6 6 6 5 4 4 3 4 4 5 6 7 7 7 7 6 5 5 5 4 4 5 4 4
0 0 0 0 0 0 0 0 0 0 0 0 0 1 1 2 3 4 4 4 5 6 7 7 7 6 6 5 5 5 4 4 4 4 5 6 7 8 8 7 6 5 5 5 5 5 5 5 4
0 0 0 0 0 0 0 0 0 0 0 0 1 1 1 2 3 4 4 4 5 6 6 7 6 6 5 5 5 5 5 4 4 5 5 6 7 7 7 6 5 5 5 5 5 5 5 4 4
0 0 0 0 0 0 0 0 0 0 0 0 1 1 1 2 2 3 3 3 4 4 5 5 5 5 5 5 5 5 5 5 5 5 6 6 7 6 6 5 5 5 4 5 4 4 4 3 3
0 0 0 0 0 0 0 0 0 0 0 1 1 1 1 1 1 1 2 2 2 2 2 3 3 4 4 5 5 6 6 6 6 6 6 6 6 5 5 5 4 4 4 4 4 3 3 3 2
0 0 0 0 0 0 0 0 0 0 1 1 1 1 1 1 1 1 1 1 1 1 1 1 2 3 4 4 5 6 6 6 6 6 6 6 6 5 5 4 4 4 4 3 3 3 2 2 1
0 0 0 0 0 0 0 0 0 0 1 1 1 0 0 0 0 0 0 0 0 0 0 1 1 2 2 3 4 4 5 5 5 5 6 6 5 5 4 4 4 3 3 3 2 2 2 1 1
0 0 0 0 0 0 0 0 0 0 0 1 1 0 0 0 0 0 0 0 0 0 0 1 1 1 2 2 2 3 3 4 4 4 5 5 5 5 4 4 3 3 3 2 2 2 1 1 1
0 0 0 0 0 0 0 0 0 0 0 0 0 0 0 0 0 0 0 0 0 0 0 1 1 1 2 2 2 2 2 2 3 3 4 4 4 4 4 3 3 3 2 2 2 1 1 1 0
0 0 0 0 0 0 0 0 0 0 0 0 0 0 0 0 0 0 0 0 0 0 1 1 1 1 2 2 2 2 2 2 2 3 3 3 3 3 3 3 2 2 2 1 1 1 1 0 0
0 0 0 0 0 0 0 0 0 0 0 0 0 0 0 0 0 0 0 0 0 0 1 1 1 1 1 1 1 1 1 1 2 2 2 2 2 2 2 2 2 1 1 1 1 1 1 0 0
0 0 0 0 0 0 0 0 0 0 0 0 0 0 0 0 0 0 0 0 0 0 1 1 1 1 1 1 1 1 1 1 1 1 1 1 1 1 1 1 1 1 1 1 1 0 0 0 0
0 0 0 0 0 0 0 0 0 0 0 0 0 0 0 0 0 0 0 0 0 0 1 1 1 1 1 1 1 0 0 0 0 0 0 0 0 1 1 1 1 0 0 0 0 0 0 0 0
Wind_Speed
11 12 11 8 6 5 3 11 14 13 12 12 11 8 10 17 12 9 12 16 22 21 19 18 16 15 13 12 12 12 12 12 11 10 9 9 8 7 6 5 4 5 5 5 5 5 5 5 5
11 15 10 6 3 3 4 13 13 12 9 9 7 5 12 16 12 12 13 17 22 20 17 16 17 15 14 12 12 12 12 12 11 10 9 9 8 7 6 5 4 4 4 4 4 4 4 4 4
13 16 8 7 3 2 5 12 10 10 9 7 7 10 11 10 9 11 15 19 21 19 17 18 18 16 15 13 12 11 11 11 11 10 9 8 8 8 7 7 6 5 4 4 3 3 3 3 4
9 8 8 8 2 3 8 8 7 10 8 7 5 11 13 6 5 12 17 19 20 18 18 18 18 16 15 13 12 11 11 10 10 9 9 8 8 8 8 7 6 5 5 4 4 3 3 4 5
10 8 10 5 2 4 8 7 6 10 6 8 7 14 12 7 10 16 16 18 18 19 18 18 18 17 15 14 13 12 11 10 10 9 8 8 7 7 7 7 6 5 5 5 5 5 5 5 6
8 9 10 4 3 5 7 5 3 8 5 7 5 13 10 8 11 14 15 15 17 19 19 17 18 17 15 14 13 12 11 10 10 9 8 8 7 7 7 7 7 7 7 6 6 6 7 7 8
10 12 14 7 6 3 5 3 4 6 6 11 6 9 10 11 11 13 13 12 16 19 19 16 15 14 14 13 13 12 11 10 10 10 9 9 8 8 8 8 9 9 8 8 8 8 9 9 9
9 10 17 10 5 3 6 1 2 3 8 7 5 7 12 13 14 14 12 10 14 17 18 15 14 13 12 12 13 13 12 11 11 11 10 10 10 11 11 11 12 12 11 11 11 11 11 11 11
12 11 13 8 4 3 5 2 1 3 6 3 3 10 15 17 16 15 11 10 11 14 15 15 15 13 12 13 14 14 13 12 11 11 12 11 9 11 11 15 15 16 15 14 13 13 13 13 13
9 11 14 6 7 6 5 3 3 3 4 5 6 11 16 16 15 15 13 12 12 12 13 12 14 13 13 11 11 10 10 10 10 9 11 9 8 7 10 14 18 18 18 16 15 15 13 12 9
12 15 16 12 8 8 8 6 4 7 3 5 5 11 15 15 14 13 13 11 11 10 11 10 11 10 11 8 9 7 7 8 11 11 9 8 6 6 7 5 9 11 13 11 11 12 9 9 8
13 14 14 12 11 10 10 9 9 9 4 7 5 7 12 13 13 14 12 10 12 11 12 11 10 8 6 6 7 7 6 6 8 10 10 8 5 5 5 3 6 7 7 8 7 5 9 9 9
10 13 15 13 11 12 13 12 12 11 8 2 2 3 6 10 12 12 13 12 12 11 11 10 10 9 6 4 3 6 6 6 7 7 9 8 6 7 6 3 2 3 3 4 6 5 6 6 6
11 10 12 14 14 13 14 14 14 13 10 5 3 4 8 9 10 12 13 12 12 14 13 11 11 10 7 5 4 4 4 4 4 5 8 10 7 5 4 3 3 4 4 3 3 4 3 4 4
9 13 15 17 17 14 12 14 15 15 9 4 4 5 5 5 7 9 11 11 11 13 12 10 11 10 9 8 8 7 6 6 5 5 6 8 7 5 4 4 4 4 4 3 2 3 3 3 4
13 15 17 18 13 7 7 12 10 9 7 4 4 5 2 2 3 5 8 8 7 8 9 10 11 12 10 8 7 7 8 7 5 5 5 8 8 6 5 4 4 3 2 2 2 3 3 3 3
16 16 18 14 8 5 8 9 8 4 4 2 3 4 3 3 3 2 4 8 7 5 5 7 7 8 10 10 8 8 6 6 5 3 4 6 8 8 6 4 3 3 2 2 4 2 2 2 3
11 12 10 8 1 1 6 12 13 4 2 4 5 4 2 0 2 2 0 1 3 5 4 5 6 6 5 6 6 6 8 7 5 5 4 4 5 7 6 5 5 4 3 3 3 3 3 2 3
11 13 13 11 7 6 9 13 15 11 4 4 2 4 4 5 7 7 4 4 4 2 2 3 4 3 3 4 5 6 7 5 5 5 6 6 5 5 5 4 4 4 4 4 4 3 4 3 3
9 9 11 11 6 6 10 14 14 14 10 6 1 0 2 5 7 7 6 7 8 7 6 3 2 3 4 5 5 5 5 5 6 6 5 5 6 5 6 5 5 5 4 5 5 5 3 3 3
10 9 10 12 13 14 17 19 18 17 13 8 7 4 3 5 6 6 6 7 7 7 6 6 5 4 4 5 4 5 4 5 6 6 4 4 4 4 4 5 5 5 5 5 5 5 6 4 3
9 11 11 12 13 14 17 16 15 11 8 9 8 7 7 6 5 5 4 3 3 4 4 4 4 4 4 5 4 6 6 7 8 6 5 5 5 5 6 6 6 5 5 5 6 6 4 4 4
9 12 12 15 15 17 17 16 13 6 4 9 10 7 6 4 3 2 1 1 2 4 3 2 2 3 4 5 5 5 6 6 6 6 6 6 6 7 7 7 6 6 5 6 6 4 4 4 3
7 11 15 17 14 15 9 11 9 5 10 14 11 7 5 4 2 2 1 1 2 4 3 3 2 3 3 4 5 5 7 7 8 7 6 6 5 6 8 7 6 6 6 6 5 4 4 3 3
6 8 9 9 6 3 2 6 7 5 11 12 10 7 4 1 2 2 2 3 3 4 4 3 3 3 3 4 5 5 6 7 8 8 7 6 5 5 7 8 7 6 6 5 5 4 4 4 4
6 8 7 9 11 12 12 9 2 10 9 7 4 2 3 4 4 3 4 3 3 5 4 4 4 3 4 4 5 5 7 7 6 6 6 6 5 5 5 7 6 6 6 6 5 4 4 4 4
7 7 9 8 13 14 10 8 8 8 4 2 4 5 5 5 4 5 6 5 5 5 5 5 5 4 4 5 6 6 6 7 7 7 6 5 4 4 4 5 6 6 5 5 4 3 3 2 2
9 9 7 7 9 11 12 10 4 1 4 4 4 6 7 6 7 6 5 4 4 4 5 5 4 4 4 5 5 6 7 7 5 4 4 4 3 3 2 3 3 3 3 3 3 3 3 2 2
8 8 8 8 9 11 13 11 10 8 5 4 7 9 9 9 9 6 5 4 5 5 5 5 4 4 4 4 4 5 6 6 4 4 4 4 4 4 3 2 1 0 1 2 2 2 1 2 1
8 8 9 8 10 11 13 13 8 5 5 6 8 8 9 9 9 7 6 5 5 5 5 5 4 4 3 3 3 4 4 4 4 4 5 6 6 5 5 4 3 2 1 1 1 1 3 4 4
Wind_Direction
254 248 240 253 251 269 342 62 56 57 60 62 45 27 43 51 52 83 128 136 121 125 133 138 137 137 138 140 143 145 145 143 141 140 138 139 138 136 133 130 122 112 104 102 103 104 106 112 115
273 267 251 249 263 315 50 70 63 59 58 78 78 33 62 64 69 110 131 125 122 127 138 140 139 138 138 139 141 144 146 146 146 146 146 149 152 155 157 157 155 146 134 130 131 132 133 138 145
265 263 267 247 167 194 75 83 88 81 63 51 78 64 54 63 74 113 125 130 126 132 139 136 144 142 142 142 143 146 148 149 151 152 155 160 165 170 172 171 172 170 166 166 170 173 173 182 193
268 257 233 258 301 141 94 94 97 92 86 65 53 82 75 53 85 119 133 135 130 137 136 140 148 147 147 149 151 152 154 156 158 160 165 171 177 180 178 178 179 181 185 191 198 209 216 221 223
257 259 261 283 317 78 79 81 78 86 64 64 63 86 81 87 107 122 142 138 141 142 134 145 151 152 154 157 159 160 161 163 164 167 172 179 184 186 184 185 189 196 205 215 220 223 228 233 238
272 268 283 312 288 94 83 73 33 70 72 92 70 99 93 116 120 140 148 148 148 138 136 145 154 156 159 163 167 169 169 171 173 175 180 187 192 198 201 200 203 208 215 222 230 236 239 237 239
276 296 293 273 248 149 89 35 34 52 48 52 14 90 117 130 136 148 143 164 148 138 136 149 156 161 165 169 174 177 179 182 185 188 192 197 203 208 213 213 215 216 219 223 229 235 240 243 243
279 291 288 280 244 123 98 344 36 21 70 60 5 62 130 138 151 146 153 174 142 136 140 155 159 163 169 175 182 186 189 193 197 201 203 206 213 218 220 219 217 219 220 223 228 234 240 243 245
267 268 277 316 343 91 95 299 129 78 115 110 73 64 119 143 155 148 161 176 148 143 145 158 160 167 177 182 181 187 195 202 206 210 214 215 221 217 215 222 218 215 218 221 226 233 239 243 246
243 263 274 338 346 360 42 310 345 282 192 167 134 112 129 148 158 158 170 179 161 153 154 163 161 172 184 194 168 185 194 195 206 211 203 208 224 236 229 210 210 211 216 220 226 233 239 241 248
250 262 286 316 335 339 320 321 323 293 320 67 104 144 145 155 163 168 177 184 163 163 166 170 161 174 188 196 162 188 197 188 197 218 210 204 219 231 238 197 195 208 215 221 225 227 232 236 236
254 276 290 300 310 312 304 305 301 299 332 79 75 120 147 165 173 179 178 187 168 179 180 177 169 175 209 209 181 187 200 187 192 197 208 202 204 232 236 208 182 193 205 209 226 206 213 230 239
264 271 277 277 277 277 278 279 281 279 288 63 75 155 177 182 179 181 177 189 177 181 191 179 172 176 197 236 243 203 208 204 196 189 193 202 201 213 229 222 206 225 234 200 209 225 219 225 238
287 289 284 283 277 270 267 269 268 263 251 226 207 217 212 198 184 182 180 183 186 184 194 187 177 178 186 208 228 260 240 216 223 196 188 195 210 212 215 207 200 222 243 259 237 250 241 230 242
276 278 270 258 247 245 255 263 263 263 251 232 249 252 235 183 180 188 178 177 193 189 190 183 178 183 187 207 219 230 238 241 222 215 202 190 203 214 208 220 217 218 222 236 255 273 290 279 272
258 256 259 256 230 227 246 269 279 270 239 221 258 277 277 116 196 197 168 167 195 192 181 183 194 189 187 199 215 231 238 240 233 212 204 195 203 215 214 214 222 214 206 207 229 236 249 270 284
245 243 253 253 175 219 251 274 284 291 297 285 274 270 258 167 190 195 171 173 192 190 174 177 207 198 188 198 209 234 252 256 263 243 210 198 198 205 207 219 221 220 219 219 246 236 215 254 274
302 293 269 268 231 95 291 292 289 279 298 297 315 334 357 280 125 119 196 228 161 166 178 186 197 220 199 198 212 225 240 242 238 248 247 223 201 196 198 209 213 220 224 219 223 236 235 238 254
324 316 320 316 336 337 303 292 291 295 284 274 324 9 31 34 54 46 22 16 31 68 154 198 217 234 241 233 229 230 237 245 248 236 229 222 217 204 192 221 212 217 227 228 227 232 236 238 242
286 288 287 284 295 292 285 281 280 279 265 248 219 355 15 59 67 55 25 19 20 24 12 0 356 297 272 258 256 256 258 258 251 249 235 217 211 207 212 215 228 230 235 232 229 226 229 229 226
279 285 301 321 329 311 293 279 267 252 232 195 178 167 125 90 78 70 49 31 20 12 4 8 10 351 324 299 280 275 271 264 263 259 250 235 228 220 230 232 237 236 234 233 225 221 226 228 236
296 329 337 315 299 290 290 292 289 276 204 169 147 121 107 92 83 68 56 36 5 353 353 359 359 354 342 329 307 286 268 262 261 261 257 247 237 237 233 234 231 232 233 234 232 221 217 219 236
310 319 304 286 278 275 273 273 279 296 117 112 106 109 104 110 104 88 359 338 320 310 310 311 348 345 336 326 311 299 289 280 278 272 260 246 235 227 230 229 227 228 231 231 232 228 220 217 233
297 290 281 266 258 265 307 322 310 48 102 122 132 142 164 168 168 173 282 302 289 291 291 300 317 313 311 308 307 300 298 296 292 282 269 254 240 227 225 225 221 223 224 224 225 227 225 221 239
287 300 302 311 291 278 308 279 281 122 116 133 150 167 185 193 277 282 303 299 286 283 287 291 291 289 298 303 304 307 304 296 284 280 272 263 254 237 221 216 214 218 216 217 216 218 224 224 235
286 288 304 324 321 321 305 285 8 102 101 109 125 186 258 274 282 296 293 283 292 310 320 315 315 309 310 311 312 309 301 293 287 283 277 270 261 255 240 222 215 217 215 216 208 213 223 228 234
293 292 320 308 291 291 298 328 78 82 81 141 211 235 256 280 307 311 315 333 334 335 336 328 323 322 322 325 323 308 306 303 299 296 292 286 276 264 244 225 215 214 216 214 203 211 228 244 243
250 279 291 292 301 305 305 319 60 108 235 232 279 314 315 318 312 317 341 346 343 340 326 319 321 322 332 332 329 327 334 328 323 318 316 315 312 307 280 237 223 205 200 198 203 223 227 210 210
265 267 304 312 303 301 303 308 326 340 2 348 327 325 327 324 321 333 340 348 346 339 328 329 328 327 337 340 349 347 341 345 0 10 13 20 24 25 23 1 347 216 191 201 210 240 201 155 132
290 295 292 282 287 292 291 294 314 39 355 324 323 334 339 335 328 332 339 346 342 332 326 326 321 325 347 358 1 4 6 15 24 36 40 40 36 30 29 20 15 6 348 30 51 49 105 109 101